This is the latest recevied weather packets stored in our database for station/object KD5BIG-13. If no packets are shown the sender has not sent any weather packets the latest 10 day(s).
| Time | Temp. | Humidity | Pressure | Rain* | Wind** | Luminosity | Snow |
|---|---|---|---|---|---|---|---|
| 1777417189 | 29.44° C | 62% | 1016.7 hPa | 0 mm | - | 100 W/m² | - |
| 1777416884 | 29.44° C | 62% | 1016.6 hPa | 0 mm | - | 105 W/m² | - |
| 1777416580 | 29.44° C | 61% | 1016.5 hPa | 0 mm | - | 115 W/m² | - |
| 1777416277 | 29.44° C | 61% | 1016.5 hPa | 0 mm | - | 114 W/m² | - |
| 1777415976 | 30° C | 63% | 1016.8 hPa | 0 mm | - | 122 W/m² | - |
| 1777415672 | 30° C | 62% | 1016.7 hPa | 0 mm | - | 140 W/m² | - |
| 1777415368 | 30° C | 60% | 1016.8 hPa | 0 mm | - | 193 W/m² | - |
| 1777415067 | 30° C | 62% | 1016.8 hPa | 0 mm | - | 174 W/m² | - |
| 1777414767 | 30° C | 62% | 1016.6 hPa | 0 mm | - | 176 W/m² | - |
| 1777414464 | 30° C | 61% | 1016.9 hPa | 0 mm | - | 217 W/m² | - |
| 1777414162 | 30° C | 64% | 1017 hPa | 0 mm | - | 220 W/m² | - |
| 1777413859 | 30° C | 61% | 1016.7 hPa | 0 mm | - | 196 W/m² | - |
| 1777413554 | 30° C | 62% | 1016.6 hPa | 0 mm | - | 174 W/m² | - |
| 1777413250 | 30° C | 59% | 1016.7 hPa | 0 mm | - | 179 W/m² | - |
| 1777412945 | 30.56° C | 59% | 1016.7 hPa | 0 mm | - | 176 W/m² | - |
| 1777412645 | 30.56° C | 58% | 1016.8 hPa | 0 mm | - | 180 W/m² | - |
| 1777412342 | 30.56° C | 58% | 1016.8 hPa | 0 mm | - | 198 W/m² | - |
| 1777412037 | 30.56° C | 59% | 1016.8 hPa | 0 mm | - | 213 W/m² | - |
| 1777411737 | 30.56° C | 58% | 1016.9 hPa | 0 mm | - | 407 W/m² | - |
| 1777411432 | 30.56° C | 62% | 1017 hPa | 0 mm | - | 275 W/m² | - |
| 1777411127 | 30.56° C | 60% | 1017.1 hPa | 0 mm | - | 589 W/m² | - |
| 1777410826 | 30.56° C | 58% | 1017.2 hPa | 0 mm | - | 597 W/m² | - |
| 1777410526 | 30.56° C | 59% | 1017.4 hPa | 0 mm | - | 566 W/m² | - |
| 1777410225 | 30.56° C | 63% | 1017.3 hPa | 0 mm | - | 574 W/m² | - |
| 1777409920 | 30.56° C | 62% | 1017.5 hPa | 0 mm | - | 599 W/m² | - |
* Rain latest hour (hover to see other rain measurements)
** Current wind speed in m/s (hover to see current wind gust speed)